Year,Month,Day,Hour,Minute,Value (Times are PST for temperature in C)
2016,09,22,00,00,10.50
2016,09,22,00,01,10.40
2016,09,22,00,02,10.40
2016,09,22,00,03,10.40
2016,09,22,00,04,10.40
2016,09,22,00,05,10.40
2016,09,22,00,06,10.40
2016,09,22,00,07,10.40
2016,09,22,00,08,10.40
2016,09,22,00,09,10.40
2016,09,22,00,10,10.40
2016,09,22,00,11,10.40
2016,09,22,00,12,10.40
2016,09,22,00,13,10.40
2016,09,22,00,14,10.30
2016,09,22,00,15,10.30
2016,09,22,00,16,10.30
2016,09,22,00,17,10.30
2016,09,22,00,18,10.30
2016,09,22,00,19,10.30
2016,09,22,00,20,10.20
2016,09,22,00,21,10.20
2016,09,22,00,22,10.20
2016,09,22,00,23,10.20
2016,09,22,00,24,10.20
2016,09,22,00,25,10.20
2016,09,22,00,26,10.20
2016,09,22,00,27,10.20
2016,09,22,00,28,10.10
2016,09,22,00,29,10.10
2016,09,22,00,30,10.10
2016,09,22,00,31,10.10
2016,09,22,00,32,10.00
2016,09,22,00,33,10.00
2016,09,22,00,34,10.00
2016,09,22,00,35,10.00
2016,09,22,00,36,10.00
2016,09,22,00,37,9.90
2016,09,22,00,38,9.90
2016,09,22,00,39,9.90
2016,09,22,00,40,9.90
2016,09,22,00,41,9.90
2016,09,22,00,42,9.90
2016,09,22,00,43,9.80
2016,09,22,00,44,9.80
2016,09,22,00,45,9.80
2016,09,22,00,46,9.80
2016,09,22,00,47,9.80
2016,09,22,00,48,9.80
2016,09,22,00,49,9.80
2016,09,22,00,50,9.80
2016,09,22,00,51,9.80
2016,09,22,00,52,9.80
2016,09,22,00,53,9.80
2016,09,22,00,54,9.80
2016,09,22,00,55,9.80
2016,09,22,00,56,9.80
2016,09,22,00,57,9.80
2016,09,22,00,58,9.80
2016,09,22,00,59,9.80
2016,09,22,01,00,9.80
2016,09,22,01,01,9.80
2016,09,22,01,02,9.80
2016,09,22,01,03,9.80
2016,09,22,01,04,9.70
2016,09,22,01,05,9.70
2016,09,22,01,06,9.70
2016,09,22,01,07,9.70
2016,09,22,01,08,9.70
2016,09,22,01,09,9.60
2016,09,22,01,10,9.60
2016,09,22,01,11,9.60
2016,09,22,01,12,9.60
2016,09,22,01,13,9.60
2016,09,22,01,14,9.60
2016,09,22,01,15,9.60
2016,09,22,01,16,9.50
2016,09,22,01,17,9.50
2016,09,22,01,18,9.50
2016,09,22,01,19,9.50
2016,09,22,01,20,9.50
2016,09,22,01,21,9.40
2016,09,22,01,22,9.40
2016,09,22,01,23,9.40
2016,09,22,01,24,9.40
2016,09,22,01,25,9.40
2016,09,22,01,26,9.40
2016,09,22,01,27,9.40
2016,09,22,01,28,9.40
2016,09,22,01,29,9.40
2016,09,22,01,30,9.30
2016,09,22,01,31,9.30
2016,09,22,01,32,9.30
2016,09,22,01,33,9.30
2016,09,22,01,34,9.30
2016,09,22,01,35,9.30
2016,09,22,01,36,9.30
2016,09,22,01,37,9.30
2016,09,22,01,38,9.30
2016,09,22,01,39,9.30
2016,09,22,01,40,9.30
2016,09,22,01,41,9.30
2016,09,22,01,42,9.30
2016,09,22,01,43,9.30
2016,09,22,01,44,9.30
2016,09,22,01,45,9.20
2016,09,22,01,46,9.20
2016,09,22,01,47,9.20
2016,09,22,01,48,9.20
2016,09,22,01,49,9.20
2016,09,22,01,50,9.20
2016,09,22,01,51,9.20
2016,09,22,01,52,9.10
2016,09,22,01,53,9.10
2016,09,22,01,54,9.10
2016,09,22,01,55,9.10
2016,09,22,01,56,9.10
2016,09,22,01,57,9.10
2016,09,22,01,58,9.10
2016,09,22,01,59,9.10
2016,09,22,02,00,9.00
2016,09,22,02,01,9.00
2016,09,22,02,02,9.00
2016,09,22,02,03,9.00
2016,09,22,02,04,8.90
2016,09,22,02,05,8.90
2016,09,22,02,06,8.90
2016,09,22,02,07,8.90
2016,09,22,02,08,8.90
2016,09,22,02,09,8.90
2016,09,22,02,10,8.90
2016,09,22,02,11,8.90
2016,09,22,02,12,8.90
2016,09,22,02,13,8.90
2016,09,22,02,14,8.90
2016,09,22,02,15,8.90
2016,09,22,02,16,8.90
2016,09,22,02,17,8.90
2016,09,22,02,18,8.90
2016,09,22,02,19,9.00
2016,09,22,02,20,9.00
2016,09,22,02,21,9.00
2016,09,22,02,22,9.00
2016,09,22,02,23,9.00
2016,09,22,02,24,9.10
2016,09,22,02,25,9.10
2016,09,22,02,26,9.10
2016,09,22,02,27,9.10
2016,09,22,02,28,9.00
2016,09,22,02,29,9.00
2016,09,22,02,30,9.00
2016,09,22,02,31,9.00
2016,09,22,02,32,8.90
2016,09,22,02,33,8.90
2016,09,22,02,34,8.90
2016,09,22,02,35,8.90
2016,09,22,02,36,8.90
2016,09,22,02,37,8.90
2016,09,22,02,38,8.90
2016,09,22,02,39,8.90
2016,09,22,02,40,8.90
2016,09,22,02,41,8.90
2016,09,22,02,42,8.90
2016,09,22,02,43,8.90
2016,09,22,02,44,8.90
2016,09,22,02,45,8.90
2016,09,22,02,46,8.90
2016,09,22,02,47,8.90
2016,09,22,02,48,8.90
2016,09,22,02,49,8.90
2016,09,22,02,50,8.90
2016,09,22,02,51,8.80
2016,09,22,02,52,8.80
2016,09,22,02,53,8.80
2016,09,22,02,54,8.80
2016,09,22,02,55,8.80
2016,09,22,02,56,8.80
2016,09,22,02,57,8.80
2016,09,22,02,58,8.80
2016,09,22,02,59,8.80
2016,09,22,03,00,8.80
2016,09,22,03,01,8.80
2016,09,22,03,02,8.70
2016,09,22,03,03,8.70
2016,09,22,03,04,8.70
2016,09,22,03,05,8.70
2016,09,22,03,06,8.70
2016,09,22,03,07,8.60
2016,09,22,03,08,8.60
2016,09,22,03,09,8.60
2016,09,22,03,10,8.50
2016,09,22,03,11,8.50
2016,09,22,03,12,8.40
2016,09,22,03,13,8.40
2016,09,22,03,14,8.40
2016,09,22,03,15,8.40
2016,09,22,03,16,8.40
2016,09,22,03,17,8.40
2016,09,22,03,18,8.40
2016,09,22,03,19,8.40
2016,09,22,03,20,8.40
2016,09,22,03,21,8.40
2016,09,22,03,22,8.40
2016,09,22,03,23,8.40
2016,09,22,03,24,8.50
2016,09,22,03,25,8.50
2016,09,22,03,26,8.50
2016,09,22,03,27,8.50
2016,09,22,03,28,8.50
2016,09,22,03,29,8.50
2016,09,22,03,30,8.40
2016,09,22,03,31,8.40
2016,09,22,03,32,8.40
2016,09,22,03,33,8.40
2016,09,22,03,34,8.40
2016,09,22,03,35,8.40
2016,09,22,03,36,8.40
2016,09,22,03,37,8.40
2016,09,22,03,38,8.30
2016,09,22,03,39,8.30
2016,09,22,03,40,8.30
2016,09,22,03,41,8.20
2016,09,22,03,42,8.20
2016,09,22,03,43,8.20
2016,09,22,03,44,8.20
2016,09,22,03,45,8.20
2016,09,22,03,46,8.20
2016,09,22,03,47,8.20
2016,09,22,03,48,8.20
2016,09,22,03,49,8.20
2016,09,22,03,50,8.20
2016,09,22,03,51,8.20
2016,09,22,03,52,8.20
2016,09,22,03,53,8.20
2016,09,22,03,54,8.20
2016,09,22,03,55,8.20
2016,09,22,03,56,8.20
2016,09,22,03,57,8.20
2016,09,22,03,58,8.20
2016,09,22,03,59,8.30
2016,09,22,04,00,8.30
2016,09,22,04,01,8.30
2016,09,22,04,02,8.30
2016,09,22,04,03,8.30
2016,09,22,04,04,8.30
2016,09,22,04,05,8.30
2016,09,22,04,06,8.20
2016,09,22,04,07,8.20
2016,09,22,04,08,8.20
2016,09,22,04,09,8.20
2016,09,22,04,10,8.20
2016,09,22,04,11,8.20
2016,09,22,04,12,8.20
2016,09,22,04,13,8.20
2016,09,22,04,14,8.20
2016,09,22,04,15,8.20
2016,09,22,04,16,8.20
2016,09,22,04,17,8.20
2016,09,22,04,18,8.20
2016,09,22,04,19,8.10
2016,09,22,04,20,8.10
2016,09,22,04,21,8.10
2016,09,22,04,22,8.00
2016,09,22,04,23,8.00
2016,09,22,04,24,8.00
2016,09,22,04,25,8.00
2016,09,22,04,26,8.00
2016,09,22,04,27,8.00
2016,09,22,04,28,8.00
2016,09,22,04,29,8.00
2016,09,22,04,30,8.00
2016,09,22,04,31,7.90
2016,09,22,04,32,7.90
2016,09,22,04,33,7.90
2016,09,22,04,34,7.90
2016,09,22,04,35,7.90
2016,09,22,04,36,7.80
2016,09,22,04,37,7.80
2016,09,22,04,38,7.80
2016,09,22,04,39,7.80
2016,09,22,04,40,7.80
2016,09,22,04,41,7.80
2016,09,22,04,42,7.80
2016,09,22,04,43,7.70
2016,09,22,04,44,7.70
2016,09,22,04,45,7.70
2016,09,22,04,46,7.70
2016,09,22,04,47,7.70
2016,09,22,04,48,7.60
2016,09,22,04,49,7.60
2016,09,22,04,50,7.60
2016,09,22,04,51,7.60
2016,09,22,04,52,7.60
2016,09,22,04,53,7.60
2016,09,22,04,54,7.60
2016,09,22,04,55,7.60
2016,09,22,04,56,7.60
2016,09,22,04,57,7.60
2016,09,22,04,58,7.60
2016,09,22,04,59,7.60
2016,09,22,05,00,7.60
2016,09,22,05,01,7.60
2016,09,22,05,02,7.60
2016,09,22,05,03,7.60
2016,09,22,05,04,7.60
2016,09,22,05,05,7.60
2016,09,22,05,06,7.50
2016,09,22,05,07,7.50
2016,09,22,05,08,7.50
2016,09,22,05,09,7.40
2016,09,22,05,10,7.40
2016,09,22,05,11,7.40
2016,09,22,05,12,7.30
2016,09,22,05,13,7.30
2016,09,22,05,14,7.30
2016,09,22,05,15,7.30
2016,09,22,05,16,7.30
2016,09,22,05,17,7.30
2016,09,22,05,18,7.30
2016,09,22,05,19,7.30
2016,09,22,05,20,7.30
2016,09,22,05,21,7.30
2016,09,22,05,22,7.30
2016,09,22,05,23,7.30
2016,09,22,05,24,7.30
2016,09,22,05,25,7.30
2016,09,22,05,26,7.30
2016,09,22,05,27,7.30
2016,09,22,05,28,7.30
2016,09,22,05,29,7.30
2016,09,22,05,30,7.30
2016,09,22,05,31,7.30
2016,09,22,05,32,7.30
2016,09,22,05,33,7.30
2016,09,22,05,34,7.30
2016,09,22,05,35,7.30
2016,09,22,05,36,7.30
2016,09,22,05,37,7.30
2016,09,22,05,38,7.30
2016,09,22,05,39,7.30
2016,09,22,05,40,7.30
2016,09,22,05,41,7.30
2016,09,22,05,42,7.30
2016,09,22,05,43,7.30
2016,09,22,05,44,7.30
2016,09,22,05,45,7.30
2016,09,22,05,46,7.30
2016,09,22,05,47,7.30
2016,09,22,05,48,7.30
2016,09,22,05,49,7.30
2016,09,22,05,50,7.20
2016,09,22,05,51,7.20
2016,09,22,05,52,7.20
2016,09,22,05,53,7.20
2016,09,22,05,54,7.10
2016,09,22,05,55,7.10
2016,09,22,05,56,7.10
2016,09,22,05,57,7.10
2016,09,22,05,58,7.10
2016,09,22,05,59,7.00
2016,09,22,06,00,7.00
2016,09,22,06,01,7.00
2016,09,22,06,02,6.90
2016,09,22,06,03,6.90
2016,09,22,06,04,6.90
2016,09,22,06,05,6.90
2016,09,22,06,06,6.90
2016,09,22,06,07,7.00
2016,09,22,06,08,7.00
2016,09,22,06,09,7.10
2016,09,22,06,10,7.00
2016,09,22,06,11,7.00
2016,09,22,06,12,7.00
2016,09,22,06,13,7.00
2016,09,22,06,14,7.00
2016,09,22,06,15,7.00
2016,09,22,06,16,7.10
2016,09,22,06,17,7.10
2016,09,22,06,18,7.10
2016,09,22,06,19,7.10
2016,09,22,06,20,7.10
2016,09,22,06,21,7.10
2016,09,22,06,22,7.10
2016,09,22,06,23,7.10
2016,09,22,06,24,7.10
2016,09,22,06,25,7.10
2016,09,22,06,26,7.10
2016,09,22,06,27,7.20
2016,09,22,06,28,7.10
2016,09,22,06,29,7.10
2016,09,22,06,30,7.10
2016,09,22,06,31,7.10
2016,09,22,06,32,7.00
2016,09,22,06,33,7.00
2016,09,22,06,34,7.10
2016,09,22,06,35,7.10
2016,09,22,06,36,7.10
2016,09,22,06,37,7.10
2016,09,22,06,38,7.10
2016,09,22,06,39,7.10
2016,09,22,06,40,7.10
2016,09,22,06,41,7.10
2016,09,22,06,42,7.10
2016,09,22,06,43,7.10
2016,09,22,06,44,7.10
2016,09,22,06,45,7.10
2016,09,22,06,46,7.10
2016,09,22,06,47,7.00
2016,09,22,06,48,7.00
2016,09,22,06,49,7.00
2016,09,22,06,50,6.90
2016,09,22,06,51,6.90
2016,09,22,06,52,6.90
2016,09,22,06,53,6.90
2016,09,22,06,54,6.90
2016,09,22,06,55,6.90
2016,09,22,06,56,6.90
2016,09,22,06,57,6.90
2016,09,22,06,58,6.80
2016,09,22,06,59,6.80
2016,09,22,07,00,6.80
2016,09,22,07,01,6.80
2016,09,22,07,02,6.80
2016,09,22,07,03,6.80
2016,09,22,07,04,6.80
2016,09,22,07,05,6.80
2016,09,22,07,06,6.80
2016,09,22,07,07,6.80
2016,09,22,07,08,6.80
2016,09,22,07,09,6.90
2016,09,22,07,10,6.90
2016,09,22,07,11,6.90
2016,09,22,07,12,7.00
2016,09,22,07,13,7.00
2016,09,22,07,14,7.10
2016,09,22,07,15,7.10
2016,09,22,07,16,7.10
2016,09,22,07,17,7.10
2016,09,22,07,18,7.10
2016,09,22,07,19,7.10
2016,09,22,07,20,7.20
2016,09,22,07,21,7.10
2016,09,22,07,22,7.10
2016,09,22,07,23,7.10
2016,09,22,07,24,7.10
2016,09,22,07,25,7.10
2016,09,22,07,26,7.10
2016,09,22,07,27,7.10
2016,09,22,07,28,7.20
2016,09,22,07,29,7.20
2016,09,22,07,30,7.20
2016,09,22,07,31,7.20
2016,09,22,07,32,7.20
2016,09,22,07,33,7.20
2016,09,22,07,34,7.30
2016,09,22,07,35,7.30
2016,09,22,07,36,7.30
2016,09,22,07,37,7.40
2016,09,22,07,38,7.40
2016,09,22,07,39,7.40
2016,09,22,07,40,7.50
2016,09,22,07,41,7.50
2016,09,22,07,42,7.60
2016,09,22,07,43,7.60
2016,09,22,07,44,7.60
2016,09,22,07,45,7.70
2016,09,22,07,46,7.70
2016,09,22,07,47,7.70
2016,09,22,07,48,7.80
2016,09,22,07,49,7.80
2016,09,22,07,50,7.80
2016,09,22,07,51,7.80
2016,09,22,07,52,7.80
2016,09,22,07,53,7.80
2016,09,22,07,54,7.90
2016,09,22,07,55,7.90
2016,09,22,07,56,7.90
2016,09,22,07,57,8.00
2016,09,22,07,58,8.00
2016,09,22,07,59,8.10
2016,09,22,08,00,8.10
2016,09,22,08,01,8.20
2016,09,22,08,02,8.20
2016,09,22,08,03,8.30
2016,09,22,08,04,8.30
2016,09,22,08,05,8.40
2016,09,22,08,06,8.40
2016,09,22,08,07,8.50
2016,09,22,08,08,8.60
2016,09,22,08,09,8.60
2016,09,22,08,10,8.70
2016,09,22,08,11,8.80
2016,09,22,08,12,8.90
2016,09,22,08,13,9.00
2016,09,22,08,14,9.10
2016,09,22,08,15,9.10
2016,09,22,08,16,9.20
2016,09,22,08,17,9.30
2016,09,22,08,18,9.30
2016,09,22,08,19,9.40
2016,09,22,08,20,9.40
2016,09,22,08,21,9.40
2016,09,22,08,22,9.40
2016,09,22,08,23,9.40
2016,09,22,08,24,9.50
2016,09,22,08,25,9.50
2016,09,22,08,26,9.50
2016,09,22,08,27,9.60
2016,09,22,08,28,9.60
2016,09,22,08,29,9.60
2016,09,22,08,30,9.70
2016,09,22,08,31,9.70
2016,09,22,08,32,9.80
2016,09,22,08,33,9.80
2016,09,22,08,34,9.80
2016,09,22,08,35,9.90
2016,09,22,08,36,9.90
2016,09,22,08,37,10.00
2016,09,22,08,38,10.10
2016,09,22,08,39,10.20
2016,09,22,08,40,10.30
2016,09,22,08,41,10.40
2016,09,22,08,42,10.60
2016,09,22,08,43,10.70
2016,09,22,08,44,10.80
2016,09,22,08,45,11.00
2016,09,22,08,46,11.10
2016,09,22,08,47,11.20
2016,09,22,08,48,11.20
2016,09,22,08,49,11.20
2016,09,22,08,50,11.20
2016,09,22,08,51,11.30
2016,09,22,08,52,11.30
2016,09,22,08,53,11.30
2016,09,22,08,54,11.30
2016,09,22,08,55,11.40
2016,09,22,08,56,11.40
2016,09,22,08,57,11.50
2016,09,22,08,58,11.60
2016,09,22,08,59,11.70
2016,09,22,09,00,11.70
2016,09,22,09,01,11.80
2016,09,22,09,02,11.90
2016,09,22,09,03,12.00
2016,09,22,09,04,12.10
2016,09,22,09,05,12.30
2016,09,22,09,06,12.40
2016,09,22,09,07,12.50
2016,09,22,09,08,12.70
2016,09,22,09,09,12.80
2016,09,22,09,10,13.00
2016,09,22,09,11,13.10
2016,09,22,09,12,13.30
2016,09,22,09,13,13.40
2016,09,22,09,14,13.50
2016,09,22,09,15,13.60
2016,09,22,09,16,13.70
2016,09,22,09,17,13.70
2016,09,22,09,18,13.80
2016,09,22,09,19,13.90
2016,09,22,09,20,13.90
2016,09,22,09,21,14.00
2016,09,22,09,22,14.10
2016,09,22,09,23,14.10
2016,09,22,09,24,14.20
2016,09,22,09,25,14.30
2016,09,22,09,26,14.30
2016,09,22,09,27,14.30
2016,09,22,09,28,14.40
2016,09,22,09,29,14.40
2016,09,22,09,30,14.50
2016,09,22,09,31,14.50
2016,09,22,09,32,14.40
2016,09,22,09,33,14.40
2016,09,22,09,34,14.40
2016,09,22,09,35,14.40
2016,09,22,09,36,14.30
2016,09,22,09,37,14.30
2016,09,22,09,38,14.30
2016,09,22,09,39,14.30
2016,09,22,09,40,14.30
2016,09,22,09,41,14.30
2016,09,22,09,42,14.30
2016,09,22,09,43,14.30
2016,09,22,09,44,14.30
2016,09,22,09,45,14.30
2016,09,22,09,46,14.40
2016,09,22,09,47,14.40
2016,09,22,09,48,14.40
2016,09,22,09,49,14.50
2016,09,22,09,50,14.60
2016,09,22,09,51,14.60
2016,09,22,09,52,14.60
2016,09,22,09,53,14.70
2016,09,22,09,54,14.70
2016,09,22,09,55,14.70
2016,09,22,09,56,14.70
2016,09,22,09,57,14.70
2016,09,22,09,58,14.70
2016,09,22,09,59,14.70
2016,09,22,10,00,14.70
2016,09,22,10,01,14.70
2016,09,22,10,02,14.60
2016,09,22,10,03,14.60
2016,09,22,10,04,14.60
2016,09,22,10,05,14.50
2016,09,22,10,06,14.40
2016,09,22,10,07,14.40
2016,09,22,10,08,14.40
2016,09,22,10,09,14.40
2016,09,22,10,10,14.40
2016,09,22,10,11,14.50
2016,09,22,10,12,14.50
2016,09,22,10,13,14.60
2016,09,22,10,14,14.70
2016,09,22,10,15,14.70
2016,09,22,10,16,14.80
2016,09,22,10,17,14.90
2016,09,22,10,18,15.00
2016,09,22,10,19,15.00
2016,09,22,10,20,15.10
2016,09,22,10,21,15.20
2016,09,22,10,22,15.20
2016,09,22,10,23,15.20
2016,09,22,10,24,15.30
2016,09,22,10,25,15.30
2016,09,22,10,26,15.40
2016,09,22,10,27,15.50
2016,09,22,10,28,15.60
2016,09,22,10,29,15.70
2016,09,22,10,30,15.70
2016,09,22,10,31,15.80
2016,09,22,10,32,15.70
2016,09,22,10,33,15.70
2016,09,22,10,34,15.70
2016,09,22,10,35,15.70
2016,09,22,10,36,15.70
2016,09,22,10,37,15.60
2016,09,22,10,38,15.60
2016,09,22,10,39,15.60
2016,09,22,10,40,15.50
2016,09,22,10,41,15.40
2016,09,22,10,42,15.30
2016,09,22,10,43,15.20
2016,09,22,10,44,15.10
2016,09,22,10,45,15.10
2016,09,22,10,46,15.00
2016,09,22,10,47,14.90
2016,09,22,10,48,14.90
2016,09,22,10,49,14.90
2016,09,22,10,50,14.90
2016,09,22,10,51,15.00
2016,09,22,10,52,15.00
2016,09,22,10,53,15.10
2016,09,22,10,54,15.10
2016,09,22,10,55,15.20
2016,09,22,10,56,15.20
2016,09,22,10,57,15.30
2016,09,22,10,58,15.30
2016,09,22,10,59,15.30
2016,09,22,11,00,15.40
2016,09,22,11,01,15.50
2016,09,22,11,02,15.60
2016,09,22,11,03,15.70
2016,09,22,11,04,15.70
2016,09,22,11,05,15.70
2016,09,22,11,06,15.70
2016,09,22,11,07,15.80
2016,09,22,11,08,15.80
2016,09,22,11,09,15.80
2016,09,22,11,10,15.90
2016,09,22,11,11,15.90
2016,09,22,11,12,16.00
2016,09,22,11,13,16.10
2016,09,22,11,14,16.10
2016,09,22,11,15,16.20
2016,09,22,11,16,16.20
2016,09,22,11,17,16.20
2016,09,22,11,18,16.20
2016,09,22,11,19,16.30
2016,09,22,11,20,16.30
2016,09,22,11,21,16.40
2016,09,22,11,22,16.40
2016,09,22,11,23,16.40
2016,09,22,11,24,16.40
2016,09,22,11,25,16.40
2016,09,22,11,26,16.40
2016,09,22,11,27,16.50
2016,09,22,11,28,16.40
2016,09,22,11,29,16.50
2016,09,22,11,30,16.40
2016,09,22,11,31,16.30
2016,09,22,11,32,16.30
2016,09,22,11,33,16.30
2016,09,22,11,34,16.20
2016,09,22,11,35,16.20
2016,09,22,11,36,16.10
2016,09,22,11,37,16.20
2016,09,22,11,38,16.20
2016,09,22,11,39,16.20
2016,09,22,11,40,16.20
2016,09,22,11,41,16.30
2016,09,22,11,42,16.30
2016,09,22,11,43,16.30
2016,09,22,11,44,16.40
2016,09,22,11,45,16.30
2016,09,22,11,46,16.30
2016,09,22,11,47,16.30
2016,09,22,11,48,16.30
2016,09,22,11,49,16.30
2016,09,22,11,50,16.30
2016,09,22,11,51,16.30
2016,09,22,11,52,16.30
2016,09,22,11,53,16.30
2016,09,22,11,54,16.30
2016,09,22,11,55,16.40
2016,09,22,11,56,16.40
2016,09,22,11,57,16.50
2016,09,22,11,58,16.50
2016,09,22,11,59,16.50
2016,09,22,12,00,16.40
2016,09,22,12,01,16.40
2016,09,22,12,02,16.30
2016,09,22,12,03,16.20
2016,09,22,12,04,16.10
2016,09,22,12,05,16.10
2016,09,22,12,06,16.00
2016,09,22,12,07,16.00
2016,09,22,12,08,15.90
2016,09,22,12,09,15.90
2016,09,22,12,10,15.80
2016,09,22,12,11,15.80
2016,09,22,12,12,15.70
2016,09,22,12,13,15.70
2016,09,22,12,14,15.60
2016,09,22,12,15,15.70
2016,09,22,12,16,15.70
2016,09,22,12,17,15.70
2016,09,22,12,18,15.70
2016,09,22,12,19,15.70
2016,09,22,12,20,15.70
2016,09,22,12,21,15.70
2016,09,22,12,22,15.80
2016,09,22,12,23,15.80
2016,09,22,12,24,15.80
2016,09,22,12,25,15.80
2016,09,22,12,26,15.70
2016,09,22,12,27,15.70
2016,09,22,12,28,15.80
2016,09,22,12,29,15.80
2016,09,22,12,30,15.70
2016,09,22,12,31,15.80
2016,09,22,12,32,15.80
2016,09,22,12,33,15.80
2016,09,22,12,34,15.90
2016,09,22,12,35,15.90
2016,09,22,12,36,16.00
2016,09,22,12,37,16.00
2016,09,22,12,38,16.10
2016,09,22,12,39,16.10
2016,09,22,12,40,16.10
2016,09,22,12,41,16.10
2016,09,22,12,42,16.10
2016,09,22,12,43,16.10
2016,09,22,12,44,16.10
2016,09,22,12,45,16.10
2016,09,22,12,46,16.10
2016,09,22,12,47,16.10
2016,09,22,12,48,16.10
2016,09,22,12,49,16.10
2016,09,22,12,50,16.10
2016,09,22,12,51,16.00
2016,09,22,12,52,15.90
2016,09,22,12,53,15.90
2016,09,22,12,54,15.90
2016,09,22,12,55,15.80
2016,09,22,12,56,15.80
2016,09,22,12,57,15.80
2016,09,22,12,58,15.80
2016,09,22,12,59,15.80
2016,09,22,13,00,15.80
2016,09,22,13,01,15.80
2016,09,22,13,02,15.80
2016,09,22,13,03,15.80
2016,09,22,13,04,15.80
2016,09,22,13,05,15.90
2016,09,22,13,06,15.90
2016,09,22,13,07,15.90
2016,09,22,13,08,15.90
2016,09,22,13,09,16.00
2016,09,22,13,10,16.00
2016,09,22,13,11,16.00
2016,09,22,13,12,15.90
2016,09,22,13,13,15.90
2016,09,22,13,14,15.80
2016,09,22,13,15,15.80
2016,09,22,13,16,15.90
2016,09,22,13,17,15.90
2016,09,22,13,18,16.00
2016,09,22,13,19,16.10
2016,09,22,13,20,16.20
2016,09,22,13,21,16.30
2016,09,22,13,22,16.50
2016,09,22,13,23,16.50
2016,09,22,13,24,16.50
2016,09,22,13,25,16.50
2016,09,22,13,26,16.50
2016,09,22,13,27,16.60
2016,09,22,13,28,16.60
2016,09,22,13,29,16.70
2016,09,22,13,30,16.70
2016,09,22,13,31,16.70
2016,09,22,13,32,16.60
2016,09,22,13,33,16.60
2016,09,22,13,34,16.50
2016,09,22,13,35,16.50
2016,09,22,13,36,16.40
2016,09,22,13,37,16.40
2016,09,22,13,38,16.40
2016,09,22,13,39,16.40
2016,09,22,13,40,16.40
2016,09,22,13,41,16.40
2016,09,22,13,42,16.40
2016,09,22,13,43,16.40
2016,09,22,13,44,16.40
2016,09,22,13,45,16.40
2016,09,22,13,46,16.50
2016,09,22,13,47,16.50
2016,09,22,13,48,16.60
2016,09,22,13,49,16.70
2016,09,22,13,50,16.70
2016,09,22,13,51,16.70
2016,09,22,13,52,16.70
2016,09,22,13,53,16.70
2016,09,22,13,54,16.70
2016,09,22,13,55,16.70
2016,09,22,13,56,16.70
2016,09,22,13,57,16.70
2016,09,22,13,58,16.70
2016,09,22,13,59,16.80
2016,09,22,14,00,16.80
2016,09,22,14,01,16.80
2016,09,22,14,02,16.80
2016,09,22,14,03,16.90
2016,09,22,14,04,16.90
2016,09,22,14,05,16.90
2016,09,22,14,06,17.00
2016,09,22,14,07,17.10
2016,09,22,14,08,17.10
2016,09,22,14,09,17.20
2016,09,22,14,10,17.20
2016,09,22,14,11,17.20
2016,09,22,14,12,17.10
2016,09,22,14,13,17.10
2016,09,22,14,14,17.10
2016,09,22,14,15,17.10
2016,09,22,14,16,17.10
2016,09,22,14,17,17.20
2016,09,22,14,18,17.20
2016,09,22,14,19,17.20
2016,09,22,14,20,17.20
2016,09,22,14,21,17.20
2016,09,22,14,22,17.20
2016,09,22,14,23,17.20
2016,09,22,14,24,17.20
2016,09,22,14,25,17.10
2016,09,22,14,26,17.10
2016,09,22,14,27,17.00
2016,09,22,14,28,17.00
2016,09,22,14,29,16.90
2016,09,22,14,30,16.90
2016,09,22,14,31,16.90
2016,09,22,14,32,16.90
2016,09,22,14,33,16.90
2016,09,22,14,34,16.90
2016,09,22,14,35,16.90
2016,09,22,14,36,17.00
2016,09,22,14,37,17.00
2016,09,22,14,38,17.00
2016,09,22,14,39,17.00
2016,09,22,14,40,17.10
2016,09,22,14,41,17.10
2016,09,22,14,42,17.10
2016,09,22,14,43,17.10
2016,09,22,14,44,17.10
2016,09,22,14,45,17.00
2016,09,22,14,46,16.90
2016,09,22,14,47,16.80
2016,09,22,14,48,16.70
2016,09,22,14,49,16.50
2016,09,22,14,50,16.40
2016,09,22,14,51,16.40
2016,09,22,14,52,16.30
2016,09,22,14,53,16.30
2016,09,22,14,54,16.30
2016,09,22,14,55,16.30
2016,09,22,14,56,16.30
2016,09,22,14,57,16.20
2016,09,22,14,58,16.20
2016,09,22,14,59,16.00
2016,09,22,15,00,15.90
2016,09,22,15,01,15.80
2016,09,22,15,02,15.70
2016,09,22,15,03,15.70
2016,09,22,15,04,15.60
2016,09,22,15,05,15.50
2016,09,22,15,06,15.40
2016,09,22,15,07,15.30
2016,09,22,15,08,15.20
2016,09,22,15,09,15.10
2016,09,22,15,10,15.00
2016,09,22,15,11,14.90
2016,09,22,15,12,14.90
2016,09,22,15,13,14.90
2016,09,22,15,14,14.90
2016,09,22,15,15,15.00
2016,09,22,15,16,15.00
2016,09,22,15,17,15.00
2016,09,22,15,18,15.00
2016,09,22,15,19,15.00
2016,09,22,15,20,14.90
2016,09,22,15,21,14.90
2016,09,22,15,22,14.90
2016,09,22,15,23,14.90
2016,09,22,15,24,14.90
2016,09,22,15,25,14.90
2016,09,22,15,26,14.90
2016,09,22,15,27,14.90
2016,09,22,15,28,14.90
2016,09,22,15,29,14.90
2016,09,22,15,30,14.80
2016,09,22,15,31,14.70
2016,09,22,15,32,14.70
2016,09,22,15,33,14.60
2016,09,22,15,34,14.60
2016,09,22,15,35,14.60
2016,09,22,15,36,14.50
2016,09,22,15,37,14.50
2016,09,22,15,38,14.50
2016,09,22,15,39,14.50
2016,09,22,15,40,14.50
2016,09,22,15,41,14.40
2016,09,22,15,42,14.40
2016,09,22,15,43,14.40
2016,09,22,15,44,14.30
2016,09,22,15,45,14.40
2016,09,22,15,46,14.50
2016,09,22,15,47,14.60
2016,09,22,15,48,14.70
2016,09,22,15,49,14.80
2016,09,22,15,50,15.10
2016,09,22,15,51,15.30
2016,09,22,15,52,15.50
2016,09,22,15,53,15.70
2016,09,22,15,54,16.00
2016,09,22,15,55,16.20
2016,09,22,15,56,16.40
2016,09,22,15,57,16.70
2016,09,22,15,58,17.00
2016,09,22,15,59,17.20
2016,09,22,16,00,17.40
2016,09,22,16,01,17.70
2016,09,22,16,02,17.80
2016,09,22,16,03,18.00
2016,09,22,16,04,18.10
2016,09,22,16,05,18.30
2016,09,22,16,06,18.40
2016,09,22,16,07,18.50
2016,09,22,16,08,18.50
2016,09,22,16,09,18.60
2016,09,22,16,10,18.70
2016,09,22,16,11,18.70
2016,09,22,16,12,18.80
2016,09,22,16,13,18.90
2016,09,22,16,14,18.90
2016,09,22,16,15,19.00
2016,09,22,16,16,19.00
2016,09,22,16,17,19.00
2016,09,22,16,18,19.00
2016,09,22,16,19,19.10
2016,09,22,16,20,19.10
2016,09,22,16,21,19.10
2016,09,22,16,22,19.10
2016,09,22,16,23,19.10
2016,09,22,16,24,19.10
2016,09,22,16,25,19.10
2016,09,22,16,26,19.00
2016,09,22,16,27,18.90
2016,09,22,16,28,18.90
2016,09,22,16,29,18.90
2016,09,22,16,30,18.90
2016,09,22,16,31,18.90
2016,09,22,16,32,18.90
2016,09,22,16,33,18.90
2016,09,22,16,34,18.80
2016,09,22,16,35,18.80
2016,09,22,16,36,18.80
2016,09,22,16,37,18.70
2016,09,22,16,38,18.60
2016,09,22,16,39,18.50
2016,09,22,16,40,18.30
2016,09,22,16,41,18.10
2016,09,22,16,42,17.80
2016,09,22,16,43,17.40
2016,09,22,16,44,17.00
2016,09,22,16,45,16.70
2016,09,22,16,46,16.40
2016,09,22,16,47,16.30
2016,09,22,16,48,16.10
2016,09,22,16,49,16.00
2016,09,22,16,50,15.90
2016,09,22,16,51,15.80
2016,09,22,16,52,15.80
2016,09,22,16,53,15.80
2016,09,22,16,54,15.80
2016,09,22,16,55,15.90
2016,09,22,16,56,16.10
2016,09,22,16,57,16.20
2016,09,22,16,58,16.30
2016,09,22,16,59,16.40
2016,09,22,17,00,16.50
2016,09,22,17,01,16.60
2016,09,22,17,02,16.60
2016,09,22,17,03,16.60
2016,09,22,17,04,16.60
2016,09,22,17,05,16.50
2016,09,22,17,06,16.40
2016,09,22,17,07,16.20
2016,09,22,17,08,16.10
2016,09,22,17,09,16.00
2016,09,22,17,10,15.90
2016,09,22,17,11,15.80
2016,09,22,17,12,15.70
2016,09,22,17,13,15.60
2016,09,22,17,14,15.50
2016,09,22,17,15,15.50
2016,09,22,17,16,15.40
2016,09,22,17,17,15.40
2016,09,22,17,18,15.40
2016,09,22,17,19,15.40
2016,09,22,17,20,15.50
2016,09,22,17,21,15.60
2016,09,22,17,22,15.60
2016,09,22,17,23,15.60
2016,09,22,17,24,15.60
2016,09,22,17,25,15.60
2016,09,22,17,26,15.60
2016,09,22,17,27,15.60
2016,09,22,17,28,15.70
2016,09,22,17,29,15.80
2016,09,22,17,30,16.00
2016,09,22,17,31,16.10
2016,09,22,17,32,16.30
2016,09,22,17,33,16.50
2016,09,22,17,34,16.60
2016,09,22,17,35,16.80
2016,09,22,17,36,16.90
2016,09,22,17,37,16.90
2016,09,22,17,38,16.90
2016,09,22,17,39,16.80
2016,09,22,17,40,16.80